Regional Weather Roundup
Issued by NWS Cleveland, OH

Home | Current Version | Previous Version | Text Only | Print | Product List | Glossary On
Versions: 1 2 3 4 5 6 7 8 9 10 11 12 13 14 15 16 17 18 19 20 21 22 23 24 25 26 27 28 29 30 31 32 33 34 35 36 37 38 39 40 41 42 43 44 45 46 47 48 49 50
000
ASUS41 KCLE 271802
RWRCLE
OHIO REGIONAL WEATHER ROUNDUP
NATIONAL WEATHER SERVICE CLEVELAND, OH
200 PM EDT WED MAY 27 2015

NOTE: "FAIR" INDICATES FEW OR NO CLOUDS BELOW 12,000 FEET WITH NO
SIGNIFICANT WEATHER AND/OR OBSTRUCTIONS TO VISIBILITY.

OHZ001>008-015>018-024>027-034-035-043-044-271900-
   NORTHWEST OHIO

CITY           SKY/WX    TMP DP  RH WIND       PRES   REMARKS
DEFIANCE       PTSUNNY   74  63  68 NW13      30.01R THUNDER
FINDLAY        MOSUNNY   81  64  56 SW23G29   30.01F
TOLEDO EXPRESS TSTM      74  65  73 W15G33    29.98S
TOLEDO EXEC    PTSUNNY   80  61  52 SW21G29   29.99F
LIMA           MOSUNNY   79  64  60 S17G26    30.04F
$$

OHZ009>014-019>023-028>033-038-089-271900-
   NORTHEAST OHIO

CITY           SKY/WX    TMP DP  RH WIND       PRES   REMARKS
CLE-HOPKINS    PTSUNNY   80  61  52 S16G24    30.05F
CLE-LAKEFRONT  PTSUNNY   81  60  48 SW17G28   30.02F
CUY CO. ARPT   PTSUNNY   82  66  57 S12       30.05F
LORAIN-ELYRIA  MOSUNNY   81  62  52 SW20G28   30.03F
ASHTABULA      MOSUNNY   79  62  56 SW18G24   30.07F
AKRON-CANTON   PTSUNNY   80  62  54 SW13G22   30.09F
WOOSTER        PTSUNNY   77  63  61 SW16G23   30.09F
MANSFIELD      MOSUNNY   78  62  57 S15G26    30.08F
YOUNGSTOWN     PTSUNNY   79  61  53 SW10G18   30.10F
$$

OHZ042-051>053-060>062-070>072-077>081-271900-
  SOUTHWEST OHIO

CITY           SKY/WX    TMP DP  RH WIND       PRES   REMARKS
CINC-COVINGTON PTSUNNY   79  64  60 S14G21    30.12F
CINC-LUNKEN    PTSUNNY   80  65  59 SW12      30.11F
HAMILTON       MOSUNNY   81  64  56 SW9G16    30.10F
DAYTON         MOSUNNY   80  63  55 SW17G23   30.09F
WRIGHT-PAT AFB MOSUNNY   81  64  55 S17       30.08F
DAYTON GENERAL SUNNY     79  62  56 SW17      30.09F
WILMINGTON     MOSUNNY   79  62  56 SW15      30.11F
$$

OHZ036-037-039>041-045>050-054>059-063>069-073>076-082>088-271900-
  CENTRAL AND SOUTHEAST OHIO

CITY           SKY/WX    TMP DP  RH WIND       PRES   REMARKS
COLUMBUS       MOSUNNY   79  62  56 S15G22    30.10F
OSU AIRPORT    MOSUNNY   81  61  50 SW14      30.09F
BOLTON FIELD   MOSUNNY   81  64  57 S16       30.11F
RICKENBACK AFB NOT AVBL
NEWARK         PTSUNNY   79  63  57 SW14      30.11F
MARION         MOSUNNY   78  61  55 SW17G25   30.07F
LANCASTER      PTSUNNY   80  61  52 SW12G20   30.12F
ZANESVILLE     NOT AVBL
NEW PHILLY     PTSUNNY   80  62  54 SW8       30.12F
$$



USA.gov is the U.S. government's official web portal to all federal, state and local government web resources and services.